Regional Weather Roundup
Issued by NWS

Home | Current Version | Previous Version | Graphics & Text | Print | Product List | Glossary On
Versions: 1 2 3 4 5 6 7 8 9 10 11 12 13 14 15 16 17 18 19 20 21 22 23 24 25 26 27 28 29 30 31 32 33 34 35 36 37 38 39 40 41 42 43 44 45 46 47 48 49 50
000
ASUS44 KMEG 010010
RWRTN
TENNESSEE HOURLY STATE WEATHER ROUNDUP
NATIONAL WEATHER SERVICE MEMPHIS TN
700 PM CDT TUE JUN 30 2015

TNZ002-004-019-021-049-052-054-088>092-010100-
WEST TENNESSEE

CITY           SKY/WX    TMP DP  RH WIND       PRES   REMARKS
MEMPHIS INTL   PTSUNNY   84  70  62 SW7       29.93R
NWS MEMPHIS      N/A     85 N/A N/A MISG        N/A
JACKSON        SUNNY     82  69  64 SW6       29.91S
DYERSBURG        N/A    N/A N/A N/A MISG        N/A
PARIS          SUNNY     79  70  73 SW5       29.90S
LEXINGTON      SUNNY     81  70  69 SW3       29.91R
$$

TNZ008-025-027-028-033-062-065-066-010100-
NORTH MIDDLE TENNESSEE

CITY           SKY/WX    TMP DP  RH WIND       PRES   REMARKS
NASHVILLE      CLOUDY    81  68  64 W6        29.90R
CLARKSVILLE    SUNNY     80  69  69 SW5       29.88S
SMYRNA         SUNNY     82  69  64 W8        29.90R
COOKEVILLE     MOSUNNY   81  73  78 CALM      29.91R
CROSSVILLE     MOSUNNY   74  67  78 VRB3      29.96R
$$

TNZ061-075-076-078-094-096-097-010100-
SOUTH MIDDLE TENNESSEE

CITY           SKY/WX    TMP DP  RH WIND       PRES   REMARKS
FAYETTEVILLE   MOSUNNY   75  68  78 W7        29.95R
TULLAHOMA      SUNNY     79  68  69 W3        29.95R
WINCHESTER     MOSUNNY   79  70  73 W5        29.94R
MCMINNVILLE    SUNNY     79  70  73 W7        29.93R
COLUMBIA       MOSUNNY   81  72  74 SW6       29.91R
SHELBYVILLE    SUNNY     81  72  74 W6        29.93R
$$

TNZ017-018-042-046-047-010100-
NORTHEAST TENNESSEE

CITY           SKY/WX    TMP DP  RH WIND       PRES   REMARKS
TRI CITIES     CLOUDY    75  62  64 SW8       29.93R
ELIZABETHTON   CLEAR     72  61  68 W5        29.94R
$$

TNZ012-013-036-069-073-074-010100-
CENTRAL EAST TENNESSEE

CITY           SKY/WX    TMP DP  RH WIND       PRES   REMARKS
KNOXVILLE      CLOUDY    74  67  78 W5        29.92R
OAK RIDGE      MOCLDY    75  67  76 CALM      29.93S
GATLINBURG     CLEAR     72  70  94 CALM      29.91F
MORRISTOWN     CLEAR     75  66  73 W9        29.94R
$$

TNZ083-085-099-010100-
SOUTHEAST TENNESSEE

CITY           SKY/WX    TMP DP  RH WIND       PRES   REMARKS
CHATTANOOGA    CLOUDY    82  68  62 SW5       29.92R
$$

SKY/WX REPORTED AS FAIR MEANS FEW OR NO CLOUDS BELOW
12 THOUSAND FEET.



USA.gov is the U.S. government's official web portal to all federal, state and local government web resources and services.